Location: Unnamed
(48.6007°N, 2.4808°E)
Time: 20:59:53
(UTC+02:00)

CUTE 1.7 + AOD 2 - Pass Details

Date: 09 April 2023
Orbit: 582 x 600 km, 97.7° (Epoch: 31 May)

Event Time Altitude Azimuth Distance (km) Brightness Sun altitude
Rises 05:25:00 0° 15° (NNE) 2,861 ? -17.1°
Reaches altitude 10° 05:27:12 10° 18° (NNE) 1,955 ? -16.8°
Maximum altitude 05:31:26 69° 102° (ESE) 649 ? -16.2°
Enters shadow 05:35:13 13° 185° (S) 1,769 ? -15.7°
